RYR49TV GMFF-LIRA

Flight info

Callsign RYR49TV
Flight time 2h 27m
Altitude 36000
Route BOKPA UG850 BERUM N860 GONZA T100 SOTAX DCT NESUL Z240 PELOS DCT VALMA
Aircraft B738/M-SDE2E3FGHIRWXY/LB1

Departure

Time 2026-05-07 16:51
Airport Fes Saïss International Airport (GMFF)

Arrival

Time 2026-05-07 19:19
Airport Ciampino–G. B. Pastine International Airport (LIRA)
Time Latitude Longitude Altitude Speed Heading
2026-05-07 16:25 33.92983 -4.98437 1894 ft 0 kts
2026-05-07 16:43 33.92973 -4.98437 1882 ft 3 kts 358°
2026-05-07 16:43 33.92953 -4.98435 1889 ft 3 kts 349°
2026-05-07 16:44 33.92934 -4.98429 1884 ft 3 kts 334°
2026-05-07 16:44 33.92922 -4.98421 1881 ft 3 kts 317°
2026-05-07 16:44 33.92912 -4.98405 1886 ft 2 kts 276°
2026-05-07 16:44 33.92912 -4.98400 1886 ft 1 kts 269°
2026-05-07 16:47 33.92912 -4.98432 1886 ft 7 kts 269°
2026-05-07 16:47 33.92911 -4.98496 1893 ft 8 kts 269°
2026-05-07 16:48 33.92885 -4.98561 1889 ft 13 kts 223°
2026-05-07 16:48 33.92812 -4.98588 1891 ft 9 kts 180°
2026-05-07 16:48 33.92745 -4.98605 1883 ft 12 kts 227°
2026-05-07 16:48 33.92732 -4.98734 1887 ft 18 kts 270°
2026-05-07 16:49 33.92732 -4.98885 1884 ft 18 kts 270°
2026-05-07 16:49 33.92732 -4.99029 1879 ft 17 kts 270°
2026-05-07 16:49 33.92734 -4.99169 1881 ft 16 kts 271°
2026-05-07 16:49 33.92735 -4.99304 1881 ft 16 kts 270°
2026-05-07 16:50 33.92765 -4.99425 1880 ft 15 kts 300°
2026-05-07 16:50 33.92783 -4.99486 1880 ft 7 kts 251°
2026-05-07 16:50 33.92735 -4.99487 1877 ft 9 kts 114°
2026-05-07 16:50 33.92735 -4.99406 1878 ft 13 kts 90°
2026-05-07 16:51 33.92734 -4.99022 1882 ft 80 kts 90°
2026-05-07 16:51 33.92731 -4.98087 1885 ft 141 kts 90°
2026-05-07 16:51 33.92748 -4.96733 2109 ft 173 kts 89°
2026-05-07 16:51 33.92764 -4.95294 2893 ft 174 kts 88°
2026-05-07 16:52 33.92749 -4.93804 3578 ft 185 kts 92°
2026-05-07 16:52 33.92683 -4.92211 4288 ft 191 kts 86°
2026-05-07 16:52 33.93096 -4.90709 4957 ft 199 kts 49°
2026-05-07 16:52 33.94270 -4.89745 5293 ft 213 kts 19°
2026-05-07 16:53 33.95721 -4.89131 5591 ft 232 kts 19°
2026-05-07 16:53 33.97315 -4.88386 5826 ft 253 kts 22°
2026-05-07 16:53 33.98973 -4.87499 6226 ft 275 kts 24°
2026-05-07 16:53 34.00793 -4.86420 6464 ft 301 kts 26°
2026-05-07 16:54 34.02619 -4.85244 7462 ft 295 kts 28°
2026-05-07 16:54 34.04418 -4.84025 8305 ft 300 kts 29°
2026-05-07 16:54 34.06256 -4.82744 8966 ft 310 kts 30°
2026-05-07 16:54 34.08143 -4.81405 9639 ft 319 kts 30°
2026-05-07 16:55 34.10061 -4.80031 10249 ft 329 kts 30°
2026-05-07 16:55 34.12097 -4.78563 10454 ft 353 kts 30°
2026-05-07 16:55 34.14254 -4.77001 10926 ft 365 kts 30°
2026-05-07 16:55 34.16445 -4.75410 11626 ft 369 kts 30°
2026-05-07 16:56 34.18647 -4.73808 12442 ft 370 kts 30°
2026-05-07 16:56 34.20861 -4.72196 13211 ft 373 kts 29°
2026-05-07 16:56 34.25350 -4.68924 14560 ft 381 kts 29°
2026-05-07 16:57 34.27633 -4.67258 15208 ft 385 kts 28°
2026-05-07 16:57 34.29938 -4.65576 15850 ft 389 kts 28°
2026-05-07 16:57 34.32266 -4.63876 16492 ft 393 kts 28°
2026-05-07 16:57 34.34613 -4.62160 17110 ft 397 kts 27°
2026-05-07 16:58 34.36990 -4.60422 17734 ft 401 kts 27°
2026-05-07 16:58 34.39384 -4.58653 18361 ft 406 kts 29°
2026-05-07 16:58 34.41701 -4.56667 18963 ft 409 kts 32°
2026-05-07 16:58 34.43966 -4.54563 19547 ft 412 kts 33°
2026-05-07 16:59 34.46233 -4.52404 20033 ft 417 kts 33°
2026-05-07 16:59 34.48527 -4.50211 20543 ft 422 kts 33°
2026-05-07 16:59 34.50846 -4.48004 21090 ft 425 kts 33°
2026-05-07 16:59 34.53185 -4.45792 21613 ft 429 kts 33°
2026-05-07 17:00 34.55555 -4.43561 22127 ft 432 kts 33°
2026-05-07 17:00 34.57914 -4.41347 22603 ft 436 kts 33°
2026-05-07 17:00 34.60327 -4.39087 23083 ft 440 kts 33°
2026-05-07 17:00 34.62766 -4.36802 23559 ft 444 kts 33°
2026-05-07 17:01 34.65223 -4.34499 23969 ft 447 kts 33°
2026-05-07 17:01 34.67688 -4.32186 24433 ft 449 kts 32°
2026-05-07 17:01 34.70164 -4.29860 24878 ft 451 kts 33°
2026-05-07 17:01 34.72653 -4.27520 25300 ft 454 kts 32°
2026-05-07 17:02 34.75153 -4.25168 25749 ft 456 kts 32°
2026-05-07 17:02 34.77667 -4.22801 26205 ft 457 kts 32°
2026-05-07 17:02 34.80188 -4.20426 26596 ft 459 kts 32°
2026-05-07 17:02 34.82725 -4.18035 26958 ft 463 kts 32°
2026-05-07 17:03 34.85273 -4.15631 27342 ft 465 kts 32°
2026-05-07 17:03 34.87832 -4.13213 27747 ft 467 kts 32°
2026-05-07 17:03 34.90406 -4.10779 28127 ft 468 kts 32°
2026-05-07 17:03 34.92986 -4.08339 28529 ft 471 kts 32°
2026-05-07 17:04 34.95581 -4.05883 28804 ft 474 kts 32°
2026-05-07 17:04 34.98191 -4.03411 29089 ft 477 kts 32°
2026-05-07 17:04 35.00819 -4.00918 29457 ft 479 kts 32°
2026-05-07 17:04 35.03456 -3.98414 29832 ft 481 kts 32°
2026-05-07 17:05 35.06097 -3.95904 30132 ft 483 kts 32°
2026-05-07 17:05 35.08749 -3.93382 30402 ft 485 kts 32°
2026-05-07 17:05 35.11418 -3.90841 30698 ft 486 kts 32°
2026-05-07 17:05 35.14083 -3.88301 31012 ft 486 kts 32°
2026-05-07 17:06 35.16745 -3.85762 31393 ft 485 kts 32°
2026-05-07 17:06 35.19394 -3.83237 31818 ft 482 kts 31°
2026-05-07 17:06 35.22021 -3.80774 32164 ft 481 kts 30°
2026-05-07 17:06 35.24684 -3.78311 32527 ft 479 kts 30°
2026-05-07 17:07 35.27346 -3.75862 32913 ft 477 kts 30°
2026-05-07 17:07 35.29996 -3.73422 33272 ft 476 kts 30°
2026-05-07 17:07 35.32642 -3.70980 33604 ft 476 kts 30°
2026-05-07 17:07 35.35276 -3.68542 33941 ft 474 kts 30°
2026-05-07 17:08 35.37905 -3.66104 34242 ft 473 kts 30°
2026-05-07 17:08 35.40526 -3.63667 34496 ft 473 kts 30°
2026-05-07 17:08 35.43148 -3.61228 34723 ft 474 kts 30°
2026-05-07 17:08 35.45772 -3.58784 34991 ft 473 kts 30°
2026-05-07 17:09 35.48397 -3.56337 35233 ft 473 kts 30°
2026-05-07 17:09 35.51015 -3.53894 35477 ft 473 kts 30°
2026-05-07 17:09 35.53636 -3.51446 35733 ft 472 kts 30°
2026-05-07 17:09 35.56240 -3.49012 35939 ft 472 kts 30°
2026-05-07 17:10 35.61513 -3.44083 35926 ft 477 kts 30°
2026-05-07 17:10 35.66766 -3.39155 35911 ft 472 kts 30°
2026-05-07 17:11 35.71919 -3.34313 35948 ft 468 kts 30°
2026-05-07 17:11 35.77101 -3.29443 35927 ft 468 kts 30°
2026-05-07 17:12 35.82284 -3.24562 35920 ft 469 kts 30°
2026-05-07 17:12 35.87445 -3.19650 35918 ft 469 kts 31°
2026-05-07 17:13 35.92598 -3.14684 35917 ft 470 kts 31°
2026-05-07 17:13 35.97758 -3.09706 35916 ft 470 kts 31°
2026-05-07 17:14 36.02892 -3.04751 35909 ft 471 kts 31°
2026-05-07 17:14 36.08059 -2.99759 35917 ft 471 kts 31°
2026-05-07 17:15 36.13226 -2.94758 35915 ft 472 kts 31°
2026-05-07 17:15 36.18285 -2.89535 35898 ft 481 kts 42°
2026-05-07 17:16 36.20290 -2.86171 35928 ft 491 kts 55°
2026-05-07 17:16 36.21731 -2.82313 35927 ft 499 kts 69°
2026-05-07 17:16 36.23431 -2.73955 35915 ft 502 kts 74°
2026-05-07 17:17 36.24998 -2.65523 35927 ft 502 kts 73°
2026-05-07 17:17 36.26628 -2.57115 35914 ft 502 kts 73°
2026-05-07 17:18 36.28298 -2.48721 35914 ft 501 kts 73°
2026-05-07 17:18 36.29967 -2.40333 35915 ft 501 kts 73°
2026-05-07 17:19 36.31627 -2.31933 35914 ft 501 kts 73°
2026-05-07 17:19 36.33268 -2.23586 35912 ft 501 kts 73°
2026-05-07 17:20 36.34912 -2.15186 35917 ft 501 kts 73°
2026-05-07 17:20 36.36550 -2.06792 35914 ft 501 kts 73°
2026-05-07 17:21 36.38571 -1.98558 35927 ft 497 kts 66°
2026-05-07 17:21 36.40925 -1.90485 35926 ft 497 kts 66°
2026-05-07 17:22 36.43259 -1.82409 35915 ft 498 kts 66°
2026-05-07 17:22 36.45538 -1.74284 35920 ft 498 kts 67°
2026-05-07 17:23 36.47795 -1.66135 35916 ft 499 kts 67°
2026-05-07 17:23 36.50034 -1.58027 35925 ft 500 kts 67°
2026-05-07 17:24 36.52289 -1.49849 35925 ft 501 kts 67°
2026-05-07 17:24 36.54543 -1.41653 35925 ft 501 kts 67°
2026-05-07 17:25 36.56798 -1.33425 35910 ft 502 kts 67°
2026-05-07 17:25 36.59047 -1.25203 35924 ft 502 kts 67°
2026-05-07 17:26 36.61804 -1.17281 35940 ft 495 kts 56°
2026-05-07 17:26 36.65193 -1.09818 35927 ft 495 kts 54°
2026-05-07 17:27 36.68596 -1.02356 35914 ft 496 kts 55°
2026-05-07 17:27 36.71953 -0.94850 35925 ft 497 kts 55°
2026-05-07 17:28 36.75271 -0.87349 35952 ft 497 kts 55°
2026-05-07 17:28 36.78608 -0.79781 35931 ft 498 kts 55°
2026-05-07 17:29 36.81947 -0.72195 35919 ft 499 kts 55°
2026-05-07 17:29 36.85292 -0.64581 35916 ft 499 kts 55°
2026-05-07 17:30 36.88629 -0.56970 35917 ft 499 kts 55°
2026-05-07 17:30 36.91964 -0.49345 35917 ft 499 kts 55°
2026-05-07 17:31 36.95285 -0.41734 35916 ft 499 kts 56°
2026-05-07 17:31 36.98045 -0.35396 35916 ft 499 kts 56°
2026-05-07 17:32 37.01895 -0.26533 35918 ft 499 kts 56°
2026-05-07 17:32 37.04667 -0.20136 35915 ft 499 kts 56°
2026-05-07 17:33 37.07967 -0.12505 35913 ft 498 kts 56°
2026-05-07 17:33 37.11241 -0.04917 35915 ft 498 kts 56°
2026-05-07 17:34 37.14542 0.02767 35920 ft 497 kts 56°
2026-05-07 17:34 37.17793 0.10359 35914 ft 497 kts 56°
2026-05-07 17:35 37.21056 0.17996 35912 ft 496 kts 56°
2026-05-07 17:35 37.24305 0.25618 35949 ft 496 kts 56°
2026-05-07 17:36 37.27554 0.33253 35930 ft 496 kts 56°
2026-05-07 17:36 37.30797 0.40896 35911 ft 495 kts 57°
2026-05-07 17:37 37.34032 0.48539 35903 ft 494 kts 57°
2026-05-07 17:37 37.37233 0.56118 35910 ft 494 kts 57°
2026-05-07 17:38 37.40446 0.63745 35905 ft 493 kts 57°
2026-05-07 17:38 37.43652 0.71374 35922 ft 493 kts 57°
2026-05-07 17:39 37.46853 0.79006 35910 ft 492 kts 58°
2026-05-07 17:39 37.50046 0.86630 35914 ft 493 kts 58°
2026-05-07 17:40 37.53243 0.94283 35906 ft 493 kts 58°
2026-05-07 17:40 37.56433 1.01938 35907 ft 493 kts 58°
2026-05-07 17:41 37.59611 1.09583 35904 ft 492 kts 58°
2026-05-07 17:41 37.62779 1.17221 35905 ft 492 kts 59°
2026-05-07 17:42 37.65953 1.24894 35898 ft 492 kts 59°
2026-05-07 17:42 37.69090 1.32496 35899 ft 492 kts 59°
2026-05-07 17:43 37.72247 1.40163 35915 ft 492 kts 60°
2026-05-07 17:43 37.75401 1.47842 35901 ft 492 kts 61°
2026-05-07 17:44 37.76620 1.51874 35873 ft 495 kts 78°
2026-05-07 17:44 37.77082 1.56154 35907 ft 493 kts 89°
2026-05-07 17:44 37.76970 1.60463 35889 ft 489 kts 101°
2026-05-07 17:44 37.76208 1.64639 35895 ft 484 kts 111°
2026-05-07 17:45 37.74096 1.72678 35883 ft 483 kts 112°
2026-05-07 17:45 37.71991 1.80746 35882 ft 484 kts 111°
2026-05-07 17:46 37.69955 1.88844 35853 ft 484 kts 111°
2026-05-07 17:46 37.69071 1.92950 35849 ft 488 kts 99°
2026-05-07 17:46 37.68961 1.97237 35911 ft 490 kts 87°
2026-05-07 17:47 37.69454 2.01513 35871 ft 493 kts 76°
2026-05-07 17:47 37.70561 2.05606 35905 ft 493 kts 64°
2026-05-07 17:47 37.73694 2.13315 35888 ft 494 kts 61°
2026-05-07 17:48 37.76910 2.20930 35880 ft 495 kts 62°
2026-05-07 17:48 37.80083 2.28660 35880 ft 495 kts 62°
2026-05-07 17:49 37.83211 2.36421 35875 ft 495 kts 63°
2026-05-07 17:49 37.86336 2.44208 35878 ft 495 kts 63°
2026-05-07 17:50 37.89451 2.51976 35886 ft 495 kts 63°
2026-05-07 17:50 37.92566 2.59758 35892 ft 495 kts 63°
2026-05-07 17:51 37.95677 2.67559 35874 ft 495 kts 64°
2026-05-07 17:51 37.97401 2.71332 35861 ft 495 kts 52°
2026-05-07 17:51 37.99648 2.74621 35899 ft 493 kts 45°
2026-05-07 17:52 38.04412 2.80894 35885 ft 493 kts 46°
2026-05-07 17:52 38.09000 2.87382 35882 ft 493 kts 49°
2026-05-07 17:53 38.13430 2.94018 35887 ft 493 kts 50°
2026-05-07 17:53 38.17856 3.00678 35895 ft 493 kts 49°
2026-05-07 17:54 38.22728 3.06744 35871 ft 490 kts 31°
2026-05-07 17:54 38.25657 3.08813 35896 ft 486 kts 20°
2026-05-07 17:54 38.28819 3.10263 35895 ft 481 kts 10°
2026-05-07 17:55 38.35389 3.11336 35901 ft 476 kts 359°
2026-05-07 17:55 38.42018 3.12010 35897 ft 478 kts
2026-05-07 17:56 38.48665 3.12806 35897 ft 481 kts
2026-05-07 17:56 38.55339 3.13696 35890 ft 486 kts
2026-05-07 17:57 38.58594 3.14939 35895 ft 494 kts 22°
2026-05-07 17:57 38.60599 3.16338 35910 ft 496 kts 32°
2026-05-07 17:57 38.64024 3.20305 35909 ft 498 kts 50°
2026-05-07 17:57 38.66236 3.23719 35912 ft 499 kts 51°
2026-05-07 17:58 38.70631 3.30591 35901 ft 499 kts 51°
2026-05-07 17:58 38.75042 3.37383 35892 ft 499 kts 50°
2026-05-07 17:59 38.79510 3.44179 35893 ft 498 kts 50°
2026-05-07 17:59 38.83975 3.50960 35922 ft 496 kts 50°
2026-05-07 18:00 38.88419 3.57728 35905 ft 495 kts 50°
2026-05-07 18:00 38.92839 3.64481 35904 ft 494 kts 50°
2026-05-07 18:01 38.97248 3.71234 35907 ft 492 kts 50°
2026-05-07 18:01 39.01636 3.77967 35906 ft 491 kts 50°
2026-05-07 18:02 39.08211 3.88084 35915 ft 491 kts 51°
2026-05-07 18:03 39.12590 3.94840 35912 ft 492 kts 51°
2026-05-07 18:03 39.16950 4.01582 35912 ft 493 kts 51°
2026-05-07 18:04 39.21343 4.08386 35913 ft 494 kts 51°
2026-05-07 18:04 39.25738 4.15220 35911 ft 496 kts 51°
2026-05-07 18:05 39.30138 4.22084 35894 ft 497 kts 51°
2026-05-07 18:05 39.34545 4.28976 35914 ft 498 kts 51°
2026-05-07 18:06 39.38962 4.35897 35916 ft 499 kts 51°
2026-05-07 18:06 39.43386 4.42845 35918 ft 500 kts 51°
2026-05-07 18:07 39.47808 4.49805 35917 ft 501 kts 51°
2026-05-07 18:07 39.52232 4.56784 35924 ft 502 kts 51°
2026-05-07 18:08 39.56650 4.63767 35913 ft 501 kts 51°
2026-05-07 18:08 39.60332 4.69563 35912 ft 500 kts 51°
2026-05-07 18:09 39.65555 4.77557 35919 ft 499 kts 50°
2026-05-07 18:09 39.70048 4.84407 35921 ft 498 kts 50°
2026-05-07 18:10 39.74514 4.91258 35926 ft 496 kts 50°
2026-05-07 18:10 39.78963 4.98117 35913 ft 495 kts 50°
2026-05-07 18:11 39.83396 5.04969 35928 ft 494 kts 50°
2026-05-07 18:11 39.87804 5.11798 35931 ft 493 kts 50°
2026-05-07 18:12 39.92211 5.18639 35953 ft 492 kts 51°
2026-05-07 18:12 39.96601 5.25469 35938 ft 492 kts 51°
2026-05-07 18:13 40.00990 5.32312 35935 ft 491 kts 51°
2026-05-07 18:13 40.05369 5.39154 35934 ft 491 kts 51°
2026-05-07 18:14 40.09748 5.46010 35942 ft 491 kts 51°
2026-05-07 18:14 40.14120 5.52872 35958 ft 492 kts 51°
2026-05-07 18:15 40.18494 5.59752 35942 ft 492 kts 51°
2026-05-07 18:15 40.22843 5.66608 35939 ft 492 kts 51°
2026-05-07 18:16 40.27217 5.73519 35924 ft 493 kts 51°
2026-05-07 18:16 40.31586 5.80437 35938 ft 493 kts 51°
2026-05-07 18:17 40.35953 5.87367 35952 ft 493 kts 51°
2026-05-07 18:17 40.40325 5.94322 35943 ft 494 kts 51°
2026-05-07 18:18 40.44692 6.01284 35945 ft 494 kts 51°
2026-05-07 18:18 40.49062 6.08266 35945 ft 494 kts 51°
2026-05-07 18:19 40.52693 6.14079 35941 ft 495 kts 51°
2026-05-07 18:19 40.57767 6.22221 35952 ft 495 kts 51°
2026-05-07 18:20 40.62132 6.29243 35951 ft 496 kts 51°
2026-05-07 18:20 40.65792 6.35144 35953 ft 497 kts 51°
2026-05-07 18:21 40.70134 6.42158 35949 ft 497 kts 51°
2026-05-07 18:21 40.74506 6.49238 35945 ft 498 kts 51°
2026-05-07 18:22 40.78880 6.56335 35954 ft 498 kts 51°
2026-05-07 18:22 40.83249 6.63443 35951 ft 499 kts 51°
2026-05-07 18:23 40.87616 6.70563 35951 ft 499 kts 51°
2026-05-07 18:23 40.91981 6.77697 35953 ft 499 kts 51°
2026-05-07 18:24 40.96341 6.84840 35940 ft 499 kts 51°
2026-05-07 18:24 41.00696 6.91991 35950 ft 498 kts 51°
2026-05-07 18:25 41.04962 6.99186 35945 ft 497 kts 58°
2026-05-07 18:25 41.06601 7.03200 35960 ft 493 kts 69°
2026-05-07 18:25 41.07743 7.07462 35959 ft 489 kts 78°
2026-05-07 18:26 41.08714 7.16290 35964 ft 482 kts 89°
2026-05-07 18:26 41.09347 7.25144 35953 ft 483 kts 89°
2026-05-07 18:27 41.10024 7.34016 35951 ft 483 kts 89°
2026-05-07 18:27 41.10730 7.42826 35951 ft 484 kts 88°
2026-05-07 18:28 41.11442 7.51703 35958 ft 485 kts 89°
2026-05-07 18:28 41.12147 7.60600 35941 ft 485 kts 88°
2026-05-07 18:29 41.12843 7.69513 35952 ft 485 kts 88°
2026-05-07 18:29 41.13534 7.78426 35954 ft 486 kts 88°
2026-05-07 18:30 41.14208 7.87351 35955 ft 487 kts 89°
2026-05-07 18:30 41.14834 7.96312 35952 ft 487 kts 89°
2026-05-07 18:31 41.15453 8.05280 35952 ft 488 kts 88°
2026-05-07 18:31 41.16073 8.14237 35956 ft 488 kts 89°
2026-05-07 18:32 41.17037 8.23189 35961 ft 492 kts 82°
2026-05-07 18:32 41.18364 8.32117 35951 ft 493 kts 82°
2026-05-07 18:33 41.19687 8.40972 35947 ft 492 kts 82°
2026-05-07 18:33 41.20964 8.49910 35944 ft 492 kts 82°
2026-05-07 18:34 41.22206 8.58853 35946 ft 492 kts 82°
2026-05-07 18:34 41.23434 8.67788 35951 ft 492 kts 83°
2026-05-07 18:35 41.24659 8.76742 35944 ft 492 kts 82°
2026-05-07 18:35 41.25877 8.85684 35949 ft 491 kts 82°
2026-05-07 18:36 41.27087 8.94620 35957 ft 491 kts 82°
2026-05-07 18:36 41.28291 9.03558 35958 ft 490 kts 82°
2026-05-07 18:37 41.29484 9.12481 35943 ft 490 kts 82°
2026-05-07 18:37 41.30671 9.21402 35954 ft 489 kts 82°
2026-05-07 18:38 41.31846 9.30298 35961 ft 489 kts 82°
2026-05-07 18:38 41.33018 9.39218 35965 ft 489 kts 82°
2026-05-07 18:39 41.34175 9.48081 35943 ft 489 kts 82°
2026-05-07 18:39 41.35331 9.56997 35961 ft 489 kts 82°
2026-05-07 18:40 41.36482 9.65928 35965 ft 489 kts 83°
2026-05-07 18:40 41.37625 9.74855 35975 ft 490 kts 83°
2026-05-07 18:41 41.38764 9.83803 35943 ft 490 kts 83°
2026-05-07 18:41 41.39895 9.92746 35964 ft 490 kts 83°
2026-05-07 18:42 41.41019 10.01695 35967 ft 490 kts 83°
2026-05-07 18:42 41.42136 10.10652 35970 ft 490 kts 83°
2026-05-07 18:43 41.43249 10.19630 35972 ft 490 kts 83°
2026-05-07 18:43 41.44353 10.28591 35956 ft 490 kts 83°
2026-05-07 18:44 41.45451 10.37564 35972 ft 490 kts 83°
2026-05-07 18:44 41.45995 10.42033 35821 ft 488 kts 83°
2026-05-07 18:44 41.46537 10.46492 35479 ft 483 kts 83°
2026-05-07 18:44 41.47071 10.50900 35115 ft 479 kts 83°
2026-05-07 18:45 41.47590 10.55209 34752 ft 475 kts 83°
2026-05-07 18:45 41.48111 10.59541 34375 ft 472 kts 83°
2026-05-07 18:45 41.48626 10.63844 34010 ft 469 kts 83°
2026-05-07 18:45 41.49136 10.68122 33605 ft 466 kts 83°
2026-05-07 18:46 41.49641 10.72368 33202 ft 462 kts 83°
2026-05-07 18:46 41.50142 10.76593 32815 ft 459 kts 83°
2026-05-07 18:46 41.50637 10.80779 32452 ft 455 kts 83°
2026-05-07 18:46 41.51126 10.84930 32085 ft 452 kts 83°
2026-05-07 18:47 41.51611 10.89068 31722 ft 449 kts 83°
2026-05-07 18:47 41.52091 10.93161 31372 ft 445 kts 83°
2026-05-07 18:47 41.52565 10.97230 31020 ft 442 kts 83°
2026-05-07 18:47 41.53035 11.01268 30666 ft 440 kts 83°
2026-05-07 18:48 41.53502 11.05302 30320 ft 437 kts 83°
2026-05-07 18:48 41.53964 11.09294 29968 ft 434 kts 83°
2026-05-07 18:48 41.54422 11.13270 29564 ft 431 kts 83°
2026-05-07 18:48 41.54873 11.17199 29190 ft 427 kts 83°
2026-05-07 18:49 41.55320 11.21102 28828 ft 423 kts 83°
2026-05-07 18:49 41.55761 11.24968 28481 ft 419 kts 83°
2026-05-07 18:49 41.56198 11.28804 28110 ft 416 kts 83°
2026-05-07 18:49 41.56630 11.32609 27746 ft 413 kts 82°
2026-05-07 18:50 41.57057 11.36385 27405 ft 409 kts 82°
2026-05-07 18:50 41.57480 11.40138 27049 ft 407 kts 82°
2026-05-07 18:50 41.58028 11.43772 26692 ft 404 kts 72°
2026-05-07 18:50 41.58967 11.47293 26367 ft 401 kts 68°
2026-05-07 18:51 41.59993 11.50744 26032 ft 398 kts 67°
2026-05-07 18:51 41.61023 11.54166 25689 ft 396 kts 68°
2026-05-07 18:51 41.62032 11.57578 25354 ft 393 kts 68°
2026-05-07 18:51 41.63016 11.60977 25010 ft 392 kts 68°
2026-05-07 18:52 41.63971 11.64329 24678 ft 390 kts 68°
2026-05-07 18:52 41.64936 11.67755 24326 ft 388 kts 68°
2026-05-07 18:52 41.65881 11.71127 23993 ft 386 kts 68°
2026-05-07 18:52 41.66821 11.74485 23663 ft 384 kts 68°
2026-05-07 18:53 41.67756 11.77834 23283 ft 383 kts 68°
2026-05-07 18:53 41.68685 11.81157 22906 ft 381 kts 68°
2026-05-07 18:53 41.69596 11.84425 22567 ft 378 kts 68°
2026-05-07 18:53 41.70510 11.87708 22240 ft 375 kts 68°
2026-05-07 18:54 41.71409 11.90962 21994 ft 370 kts 69°
2026-05-07 18:54 41.72282 11.94137 21995 ft 354 kts 69°
2026-05-07 18:54 41.73108 11.97148 21957 ft 336 kts 69°
2026-05-07 18:54 41.73903 12.00050 21513 ft 335 kts 69°
2026-05-07 18:55 41.74731 12.03065 20704 ft 351 kts 69°
2026-05-07 18:55 41.75566 12.06112 20452 ft 347 kts 69°
2026-05-07 18:55 41.76396 12.09144 20135 ft 346 kts 70°
2026-05-07 18:55 41.77224 12.12176 19831 ft 345 kts 69°
2026-05-07 18:56 41.78047 12.15189 19523 ft 344 kts 70°
2026-05-07 18:56 41.78862 12.18176 19357 ft 338 kts 70°
2026-05-07 18:56 41.79660 12.21108 19079 ft 331 kts 70°
2026-05-07 18:56 41.80443 12.23984 18914 ft 326 kts 70°
2026-05-07 18:57 41.81236 12.26817 18621 ft 325 kts 69°
2026-05-07 18:57 41.82043 12.29645 18343 ft 324 kts 69°
2026-05-07 18:57 41.82851 12.32467 18030 ft 324 kts 69°
2026-05-07 18:57 41.83654 12.35282 17710 ft 323 kts 69°
2026-05-07 18:58 41.84454 12.38089 17399 ft 322 kts 70°
2026-05-07 18:58 41.85248 12.40882 17095 ft 320 kts 70°
2026-05-07 18:58 41.86038 12.43669 16800 ft 319 kts 70°
2026-05-07 18:58 41.86823 12.46444 16508 ft 317 kts 70°
2026-05-07 18:59 41.87602 12.49200 16223 ft 316 kts 70°
2026-05-07 18:59 41.88381 12.51958 15882 ft 316 kts 70°
2026-05-07 18:59 41.89157 12.54711 15593 ft 315 kts 70°
2026-05-07 18:59 41.89928 12.57449 15293 ft 314 kts 70°
2026-05-07 19:00 41.90698 12.60189 15008 ft 312 kts 70°
2026-05-07 19:00 41.91464 12.62912 14729 ft 311 kts 70°
2026-05-07 19:00 41.92222 12.65610 14554 ft 306 kts 70°
2026-05-07 19:00 41.92964 12.68257 14426 ft 299 kts 70°
2026-05-07 19:01 41.93698 12.70835 14299 ft 292 kts 66°
2026-05-07 19:01 41.94866 12.72996 14165 ft 284 kts 37°
2026-05-07 19:01 41.96546 12.74178 14004 ft 275 kts 12°
2026-05-07 19:01 41.98414 12.74420 13793 ft 267 kts 350°
2026-05-07 19:02 42.00205 12.73850 13542 ft 263 kts 341°
2026-05-07 19:02 42.01957 12.73148 13271 ft 262 kts 341°
2026-05-07 19:02 42.03704 12.72445 13007 ft 262 kts 341°
2026-05-07 19:02 42.05414 12.71639 12721 ft 259 kts 327°
2026-05-07 19:03 42.06649 12.69989 12506 ft 248 kts 297°
2026-05-07 19:03 42.07290 12.67855 12276 ft 246 kts 282°
2026-05-07 19:03 42.07677 12.65609 12032 ft 247 kts 280°
2026-05-07 19:03 42.08042 12.63350 11778 ft 246 kts 280°
2026-05-07 19:04 42.08416 12.61105 11520 ft 246 kts 281°
2026-05-07 19:04 42.08797 12.58866 11264 ft 245 kts 281°
2026-05-07 19:04 42.09051 12.57391 11102 ft 244 kts 281°
2026-05-07 19:04 42.09304 12.54392 10745 ft 240 kts 255°
2026-05-07 19:05 42.08561 12.52447 10551 ft 235 kts 226°
2026-05-07 19:05 42.07250 12.51147 10333 ft 236 kts 204°
2026-05-07 19:05 42.05741 12.50376 10106 ft 235 kts 200°
2026-05-07 19:05 42.04705 12.49881 9941 ft 235 kts 200°
2026-05-07 19:06 42.03168 12.49141 9683 ft 235 kts 200°
2026-05-07 19:06 42.00107 12.47648 9162 ft 234 kts 200°
2026-05-07 19:06 41.98542 12.47112 8891 ft 233 kts 179°
2026-05-07 19:07 41.96983 12.47640 8704 ft 231 kts 157°
2026-05-07 19:07 41.95548 12.48580 8459 ft 234 kts 154°
2026-05-07 19:07 41.94091 12.49612 8206 ft 233 kts 153°
2026-05-07 19:07 41.92671 12.50593 7965 ft 232 kts 154°
2026-05-07 19:08 41.91233 12.51571 7727 ft 232 kts 154°
2026-05-07 19:08 41.89796 12.52542 7492 ft 231 kts 154°
2026-05-07 19:08 41.88361 12.53509 7257 ft 230 kts 154°
2026-05-07 19:08 41.86924 12.54475 7046 ft 230 kts 154°
2026-05-07 19:09 41.85495 12.55433 6814 ft 230 kts 154°
2026-05-07 19:09 41.84069 12.56387 6577 ft 230 kts 153°
2026-05-07 19:09 41.82640 12.57344 6338 ft 229 kts 153°
2026-05-07 19:09 41.81210 12.58298 6083 ft 230 kts 154°
2026-05-07 19:10 41.79673 12.58749 5897 ft 226 kts 182°
2026-05-07 19:10 41.78122 12.58572 5802 ft 223 kts 184°
2026-05-07 19:10 41.76570 12.58404 5692 ft 224 kts 183°
2026-05-07 19:10 41.75005 12.58239 5584 ft 227 kts 184°
2026-05-07 19:11 41.73417 12.58072 5469 ft 230 kts 184°
2026-05-07 19:11 41.71842 12.57907 5344 ft 230 kts 184°
2026-05-07 19:11 41.70245 12.57740 5231 ft 231 kts 183°
2026-05-07 19:11 41.68641 12.57572 5081 ft 231 kts 183°
2026-05-07 19:12 41.67056 12.57408 4947 ft 227 kts 183°
2026-05-07 19:12 41.65494 12.57246 4822 ft 224 kts 183°
2026-05-07 19:12 41.63934 12.57084 4714 ft 225 kts 183°
2026-05-07 19:12 41.62366 12.57080 4581 ft 226 kts 168°
2026-05-07 19:13 41.60844 12.57578 4478 ft 226 kts 162°
2026-05-07 19:13 41.59483 12.58558 4319 ft 224 kts 131°
2026-05-07 19:13 41.58768 12.60332 4235 ft 213 kts 101°
2026-05-07 19:13 41.58766 12.62229 4123 ft 200 kts 77°
2026-05-07 19:14 41.59384 12.63841 3991 ft 194 kts 44°
2026-05-07 19:14 41.60537 12.64708 3869 ft 194 kts 12°
2026-05-07 19:14 41.61886 12.64644 3755 ft 197 kts 348°
2026-05-07 19:14 41.63232 12.64226 3601 ft 200 kts 348°
2026-05-07 19:15 41.64561 12.63814 3475 ft 195 kts 348°
2026-05-07 19:15 41.65864 12.63395 3290 ft 188 kts 347°
2026-05-07 19:15 41.67106 12.62981 3081 ft 179 kts 347°
2026-05-07 19:15 41.68261 12.62605 2912 ft 164 kts 348°
2026-05-07 19:16 41.69350 12.62252 2743 ft 160 kts 349°
2026-05-07 19:16 41.70435 12.61929 2533 ft 158 kts 349°
2026-05-07 19:16 41.71462 12.61618 2366 ft 148 kts 349°
2026-05-07 19:16 41.72419 12.61340 2150 ft 134 kts 350°
2026-05-07 19:17 41.73319 12.61110 1860 ft 132 kts 351°
2026-05-07 19:17 41.74247 12.60892 1690 ft 136 kts 351°
2026-05-07 19:17 41.75188 12.60866 1511 ft 134 kts
2026-05-07 19:17 41.76114 12.61021 1257 ft 135 kts
2026-05-07 19:18 41.77055 12.61103 1003 ft 137 kts 358°
2026-05-07 19:18 41.77988 12.60804 737 ft 140 kts 336°
2026-05-07 19:18 41.78857 12.60223 522 ft 139 kts 332°
2026-05-07 19:18 41.79687 12.59653 400 ft 126 kts 332°
2026-05-07 19:19 41.80312 12.59222 373 ft 67 kts 333°
2026-05-07 19:19 41.80534 12.59072 366 ft 26 kts 333°
2026-05-07 19:19 41.80661 12.58985 359 ft 11 kts 333°
2026-05-07 19:19 41.80731 12.58937 360 ft 13 kts 333°
2026-05-07 19:20 41.80756 12.58836 362 ft 8 kts 243°
2026-05-07 19:20 41.80730 12.58773 358 ft 8 kts 231°
2026-05-07 19:20 41.80660 12.58782 358 ft 16 kts 154°
2026-05-07 19:20 41.80565 12.58846 359 ft 12 kts 151°
2026-05-07 19:21 41.80496 12.58896 360 ft 6 kts 153°
2026-05-07 19:21 41.80460 12.58921 366 ft 6 kts 153°
2026-05-07 19:21 41.80423 12.58946 365 ft 6 kts 153°
2026-05-07 19:21 41.80365 12.58986 369 ft 12 kts 153°
2026-05-07 19:22 41.80292 12.59035 370 ft 12 kts 153°
2026-05-07 19:22 41.80221 12.59084 374 ft 11 kts 153°
2026-05-07 19:22 41.80152 12.59131 379 ft 11 kts 153°
2026-05-07 19:22 41.80090 12.59173 382 ft 7 kts 157°
2026-05-07 19:23 41.80057 12.59142 381 ft 2 kts 242°
2026-05-07 19:23 41.80049 12.59114 381 ft 4 kts 255°
2026-05-07 19:23 41.80051 12.59085 380 ft 2 kts 287°
2026-05-07 19:23 41.80051 12.59083 380 ft 0 kts 287°
2026-05-07 19:53 41.80050 12.59087 380 ft 2 kts 286°
2026-05-07 19:53 41.80047 12.59109 380 ft 3 kts 269°
2026-05-07 19:54 41.80050 12.59134 381 ft 3 kts 240°
2026-05-07 19:54 41.80062 12.59155 381 ft 3 kts 214°
2026-05-07 19:54 41.80079 12.59166 382 ft 3 kts 191°
2026-05-07 19:54 41.80092 12.59169 382 ft 3 kts 173°
2026-05-07 19:55 41.80103 12.59165 381 ft 1 kts 153°
2026-05-07 19:55 41.80104 12.59165 381 ft 0 kts 153°
2026-05-07 19:57 41.80097 12.59169 382 ft 5 kts 153°
2026-05-07 19:57 41.80047 12.59204 383 ft 11 kts 153°
2026-05-07 19:58 41.79975 12.59253 387 ft 11 kts 153°
2026-05-07 19:58 41.79905 12.59302 391 ft 11 kts 151°
2026-05-07 19:58 41.79838 12.59350 393 ft 11 kts 152°
2026-05-07 19:58 41.79772 12.59396 394 ft 11 kts 153°
2026-05-07 19:59 41.79708 12.59439 397 ft 10 kts 153°
2026-05-07 19:59 41.79645 12.59482 401 ft 10 kts 153°
2026-05-07 19:59 41.79584 12.59523 403 ft 10 kts 153°
2026-05-07 19:59 41.79516 12.59570 405 ft 14 kts 152°
2026-05-07 20:00 41.79421 12.59636 411 ft 16 kts 153°
2026-05-07 20:00 41.79326 12.59701 410 ft 15 kts 153°
2026-05-07 20:00 41.79236 12.59763 416 ft 14 kts 153°
2026-05-07 20:00 41.79149 12.59822 416 ft 14 kts 153°
2026-05-07 20:01 41.79066 12.59880 425 ft 13 kts 153°
2026-05-07 20:01 41.79028 12.59965 429 ft 12 kts 68°
2026-05-07 20:01 41.79069 12.60057 426 ft 12 kts 34°
2026-05-07 20:01 41.79129 12.60039 429 ft 11 kts 332°
2026-05-07 20:02 41.79433 12.59828 411 ft 94 kts 333°
2026-05-07 20:02 41.80254 12.59256 409 ft 167 kts 332°
2026-05-07 20:02 41.81368 12.58478 1062 ft 188 kts 333°
2026-05-07 20:02 41.82498 12.57678 2317 ft 178 kts 334°
2026-05-07 20:03 41.83573 12.56933 3377 ft 172 kts 335°
2026-05-07 20:03 41.84672 12.56190 4047 ft 182 kts 335°
2026-05-07 20:03 41.85797 12.55410 4855 ft 182 kts 329°
2026-05-07 20:03 41.86729 12.54143 5280 ft 206 kts 297°
2026-05-07 20:04 41.87270 12.52277 5597 ft 225 kts 289°
2026-05-07 20:04 41.87841 12.50257 6044 ft 236 kts 291°
2026-05-07 20:04 41.88307 12.48148 6696 ft 237 kts 269°
2026-05-07 20:04 41.87889 12.45985 7078 ft 249 kts 243°
2026-05-07 20:05 41.87103 12.43798 7389 ft 273 kts 243°
2026-05-07 20:05 41.86287 12.41458 8111 ft 279 kts 244°
2026-05-07 20:05 41.85480 12.39082 9020 ft 280 kts 244°
2026-05-07 20:05 41.84679 12.36690 9909 ft 282 kts 245°
2026-05-07 20:06 41.83867 12.34250 10465 ft 296 kts 245°
2026-05-07 20:06 41.82990 12.31616 10651 ft 322 kts 245°
2026-05-07 20:06 41.82051 12.28792 10953 ft 341 kts 245°
2026-05-07 20:06 41.81073 12.25854 11566 ft 348 kts 244°
2026-05-07 20:07 41.79774 12.23114 12302 ft 351 kts 225°
2026-05-07 20:07 41.77919 12.20990 13136 ft 352 kts 218°
2026-05-07 20:07 41.75980 12.18965 13870 ft 356 kts 218°
2026-05-07 20:07 41.74011 12.16927 14647 ft 359 kts 218°
2026-05-07 20:08 41.72033 12.14870 15349 ft 361 kts 218°
2026-05-07 20:08 41.70049 12.12792 16036 ft 364 kts 218°
2026-05-07 20:08 41.68053 12.10690 16700 ft 367 kts 219°
2026-05-07 20:08 41.66039 12.08563 17357 ft 370 kts 219°
2026-05-07 20:09 41.64015 12.06425 18015 ft 373 kts 219°
2026-05-07 20:09 41.61975 12.04270 18607 ft 375 kts 219°
2026-05-07 20:09 41.59941 12.02125 19127 ft 379 kts 219°
2026-05-07 20:10 41.55760 11.97706 20175 ft 387 kts 219°
2026-05-07 20:10 41.53642 11.95465 20713 ft 390 kts 219°
2026-05-07 20:10 41.51504 11.93205 21230 ft 393 kts 219°
2026-05-07 20:10 41.49350 11.90931 21723 ft 397 kts 219°
2026-05-07 20:11 41.47175 11.88635 22228 ft 401 kts 219°
2026-05-07 20:11 41.44981 11.86321 22715 ft 404 kts 219°
2026-05-07 20:11 41.42764 11.83987 23190 ft 407 kts 220°
2026-05-07 20:11 41.40537 11.81640 23642 ft 410 kts 221°
2026-05-07 20:12 41.38580 11.78886 24029 ft 411 kts 237°
2026-05-07 20:12 41.37319 11.75493 24516 ft 409 kts 249°
2026-05-07 20:12 41.36380 11.71916 25057 ft 409 kts 250°
2026-05-07 20:12 41.35474 11.68322 25479 ft 410 kts 251°
2026-05-07 20:13 41.34574 11.64719 25872 ft 413 kts 251°
2026-05-07 20:13 41.33659 11.61083 26282 ft 414 kts 251°
2026-05-07 20:13 41.32735 11.57450 26695 ft 415 kts 250°
2026-05-07 20:13 41.31800 11.53813 27103 ft 416 kts 250°
2026-05-07 20:14 41.30856 11.50170 27499 ft 418 kts 250°
2026-05-07 20:14 41.29903 11.46509 27879 ft 419 kts 250°
2026-05-07 20:14 41.28944 11.42842 28247 ft 420 kts 250°
2026-05-07 20:14 41.27983 11.39175 28670 ft 420 kts 250°
2026-05-07 20:15 41.27024 11.35524 29256 ft 416 kts 250°
2026-05-07 20:15 41.26075 11.31913 29898 ft 411 kts 250°
2026-05-07 20:15 41.25133 11.28338 30422 ft 408 kts 250°
2026-05-07 20:15 41.24196 11.24783 30770 ft 408 kts 250°
2026-05-07 20:16 41.23257 11.21226 31142 ft 407 kts 250°
2026-05-07 20:16 41.22321 11.17689 31606 ft 403 kts 250°
2026-05-07 20:16 41.21398 11.14204 32209 ft 397 kts 250°
2026-05-07 20:16 41.20487 11.10767 32705 ft 393 kts 250°
2026-05-07 20:17 41.19578 11.07345 33056 ft 393 kts 250°
2026-05-07 20:17 41.18670 11.03930 33386 ft 392 kts 250°
2026-05-07 20:17 41.17763 11.00525 33806 ft 390 kts 250°
2026-05-07 20:17 41.16862 10.97144 34195 ft 387 kts 250°
2026-05-07 20:18 41.15966 10.93789 34512 ft 385 kts 250°
2026-05-07 20:18 41.15070 10.90439 34786 ft 385 kts 250°
2026-05-07 20:18 41.14173 10.87091 34971 ft 387 kts 250°
2026-05-07 20:19 41.12356 10.80319 34959 ft 390 kts 250°
2026-05-07 20:19 41.10548 10.73598 34951 ft 383 kts 250°
2026-05-07 20:20 41.08759 10.66964 34969 ft 382 kts 250°
2026-05-07 20:20 41.06966 10.60337 34949 ft 382 kts 250°
2026-05-07 20:21 41.05170 10.53713 34980 ft 382 kts 250°
2026-05-07 20:21 41.03370 10.47094 34969 ft 382 kts 250°
2026-05-07 20:22 41.01567 10.40482 34962 ft 381 kts 250°
2026-05-07 20:22 40.99763 10.33882 34962 ft 381 kts 249°
2026-05-07 20:23 40.97957 10.27294 34965 ft 380 kts 249°
2026-05-07 20:23 40.96150 10.20717 34967 ft 380 kts 249°
2026-05-07 20:24 40.94952 10.16368 34977 ft 380 kts 249°
2026-05-07 20:24 40.92540 10.07633 34965 ft 380 kts 249°
2026-05-07 20:25 40.90726 10.01083 34954 ft 379 kts 249°
2026-05-07 20:25 40.88913 9.94550 34967 ft 378 kts 249°
2026-05-07 20:26 40.87097 9.88027 34966 ft 378 kts 249°
2026-05-07 20:26 40.85280 9.81517 34979 ft 378 kts 249°
2026-05-07 20:27 40.83457 9.75004 34969 ft 378 kts 249°
2026-05-07 20:27 40.81632 9.68498 34989 ft 378 kts 249°
2026-05-07 20:28 40.79801 9.61989 34990 ft 378 kts 249°
2026-05-07 20:28 40.78576 9.57640 34988 ft 378 kts 249°